Location: Baix
(44.7118°N, 4.7648°E)
Time: 02:31:14
(UTC+00:00)

ATLAS CENTAUR R/B - Pass Details

Date: 07 August 2020
Orbit: 476 x 670 km, 64.7° (Epoch: 26 September)

Event Time Altitude Azimuth Distance (km) Brightness Sun altitude
Exits shadow 03:26:20 - 180° (S) 2,623 4.4 -11.2°
Reaches altitude 10° 03:28:29 10° 167° (SSE) 1,869 3.8 -10.9°
Maximum altitude 03:31:46 23° 115° (ESE) 1,211 3.4 -10.4°
Drops below altitude 10° 03:34:56 10° 63° (ENE) 1,787 5.5 -10.0°
Sets 03:37:23 0° 48° (NE) 2,647 7.0 -9.6°
